RYR2UM EGAA-EPKK

Flight info

Callsign RYR2UM
Flight time 2h 39m
Altitude 37000
Route DUFFY DCT SOSIM L15 GIGTO Q38 MALUD L15 HON P155 SIVDA P137 REDFA L620 SUVOX Z718 OSNAD L980 SAS L986 BOLBO DCT KOBUS L986 LASIS T714 MOFKE
Aircraft B38M/M-SDE1FGHILORVWXY/HB1

Departure

Time 2026-04-30 07:26
Airport Belfast International Airport (EGAA)

Arrival

Time 2026-04-30 10:05
Airport Kraków John Paul II International Airport (EPKK)
Time Latitude Longitude Altitude Speed Heading
2026-04-30 07:06 54.65955 -6.21756 277 ft 0 kts 288°
2026-04-30 07:15 54.65952 -6.21743 277 ft 2 kts 288°
2026-04-30 07:15 54.65947 -6.21713 277 ft 3 kts 288°
2026-04-30 07:16 54.65941 -6.21682 277 ft 3 kts 288°
2026-04-30 07:16 54.65935 -6.21652 277 ft 2 kts 285°
2026-04-30 07:16 54.65931 -6.21621 277 ft 3 kts 281°
2026-04-30 07:16 54.65931 -6.21587 277 ft 3 kts 257°
2026-04-30 07:17 54.65936 -6.21561 277 ft 0 kts 246°
2026-04-30 07:20 54.65936 -6.21562 277 ft 1 kts 246°
2026-04-30 07:20 54.65932 -6.21578 277 ft 2 kts 246°
2026-04-30 07:20 54.65924 -6.21609 277 ft 4 kts 246°
2026-04-30 07:20 54.65911 -6.21656 277 ft 5 kts 245°
2026-04-30 07:21 54.65895 -6.21717 277 ft 6 kts 245°
2026-04-30 07:21 54.65873 -6.21799 277 ft 9 kts 245°
2026-04-30 07:21 54.65840 -6.21921 277 ft 13 kts 245°
2026-04-30 07:21 54.65799 -6.22080 277 ft 16 kts 251°
2026-04-30 07:22 54.65757 -6.22469 277 ft 13 kts 264°
2026-04-30 07:22 54.65745 -6.22648 277 ft 16 kts 264°
2026-04-30 07:22 54.65722 -6.22841 277 ft 12 kts 254°
2026-04-30 07:23 54.65679 -6.22972 277 ft 12 kts 234°
2026-04-30 07:23 54.65622 -6.23105 277 ft 16 kts 234°
2026-04-30 07:23 54.65551 -6.23273 277 ft 17 kts 234°
2026-04-30 07:23 54.65459 -6.23362 277 ft 14 kts 200°
2026-04-30 07:24 54.65374 -6.23395 277 ft 10 kts 157°
2026-04-30 07:24 54.65306 -6.23339 277 ft 11 kts 149°
2026-04-30 07:24 54.65294 -6.23264 277 ft 5 kts 62°
2026-04-30 07:24 54.65299 -6.23243 277 ft 0 kts 65°
2026-04-30 07:25 54.65300 -6.23243 277 ft 1 kts 65°
2026-04-30 07:25 54.65386 -6.22920 277 ft 64 kts 65°
2026-04-30 07:25 54.65666 -6.21879 277 ft 124 kts 65°
2026-04-30 07:25 54.66084 -6.20327 493 ft 151 kts 65°
2026-04-30 07:26 54.66526 -6.18685 1178 ft 152 kts 66°
2026-04-30 07:26 54.66965 -6.16981 1849 ft 158 kts 72°
2026-04-30 07:26 54.66930 -6.15117 2552 ft 158 kts 110°
2026-04-30 07:26 54.66329 -6.13501 3304 ft 164 kts 126°
2026-04-30 07:27 54.65569 -6.11973 3990 ft 174 kts 130°
2026-04-30 07:27 54.64716 -6.10358 4658 ft 189 kts 131°
2026-04-30 07:27 54.63787 -6.08634 5344 ft 206 kts 132°
2026-04-30 07:27 54.62759 -6.06748 6044 ft 223 kts 133°
2026-04-30 07:28 54.61664 -6.04739 6732 ft 238 kts 133°
2026-04-30 07:28 54.60492 -6.02594 7420 ft 254 kts 133°
2026-04-30 07:28 54.59253 -6.00332 8106 ft 269 kts 133°
2026-04-30 07:28 54.57911 -5.97889 8802 ft 286 kts 133°
2026-04-30 07:29 54.56506 -5.95340 9491 ft 301 kts 133°
2026-04-30 07:29 54.55043 -5.92692 10172 ft 315 kts 133°
2026-04-30 07:29 54.53510 -5.89844 10860 ft 333 kts 132°
2026-04-30 07:29 54.51915 -5.86795 11548 ft 351 kts 131°
2026-04-30 07:30 54.48571 -5.80307 13129 ft 371 kts 131°
2026-04-30 07:30 54.46847 -5.76937 13986 ft 376 kts 132°
2026-04-30 07:30 54.45115 -5.73579 14834 ft 380 kts 132°
2026-04-30 07:31 54.43346 -5.70159 15689 ft 382 kts 132°
2026-04-30 07:31 54.41597 -5.66767 16534 ft 383 kts 133°
2026-04-30 07:31 54.39823 -5.63321 17390 ft 383 kts 133°
2026-04-30 07:31 54.38053 -5.59900 18244 ft 382 kts 132°
2026-04-30 07:32 54.36518 -5.56188 19101 ft 381 kts 123°
2026-04-30 07:32 54.35261 -5.52188 19965 ft 380 kts 119°
2026-04-30 07:32 54.34164 -5.48121 20835 ft 377 kts 117°
2026-04-30 07:32 54.33145 -5.44027 21689 ft 373 kts 115°
2026-04-30 07:33 54.32163 -5.39920 22439 ft 372 kts 115°
2026-04-30 07:33 54.31180 -5.35741 23070 ft 383 kts 115°
2026-04-30 07:33 54.30177 -5.31469 23676 ft 395 kts 115°
2026-04-30 07:33 54.29130 -5.27019 24285 ft 406 kts 115°
2026-04-30 07:34 54.28070 -5.22532 24885 ft 414 kts 115°
2026-04-30 07:34 54.26982 -5.17941 25487 ft 421 kts 115°
2026-04-30 07:34 54.25862 -5.13231 26096 ft 426 kts 115°
2026-04-30 07:34 54.24740 -5.08535 26682 ft 430 kts 115°
2026-04-30 07:35 54.23605 -5.03808 27152 ft 436 kts 115°
2026-04-30 07:35 54.22438 -4.98968 27589 ft 441 kts 115°
2026-04-30 07:35 54.21253 -4.94084 28020 ft 445 kts 115°
2026-04-30 07:35 54.20082 -4.89249 28441 ft 447 kts 114°
2026-04-30 07:36 54.18890 -4.84336 28868 ft 448 kts 114°
2026-04-30 07:36 54.17704 -4.79407 29294 ft 448 kts 114°
2026-04-30 07:36 54.16533 -4.74503 29718 ft 447 kts 114°
2026-04-30 07:36 54.15362 -4.69583 30144 ft 446 kts 114°
2026-04-30 07:37 54.14197 -4.64678 30584 ft 444 kts 114°
2026-04-30 07:37 54.13039 -4.59855 31065 ft 442 kts 114°
2026-04-30 07:37 54.11861 -4.55023 31562 ft 440 kts 115°
2026-04-30 07:37 54.10679 -4.50206 32063 ft 438 kts 115°
2026-04-30 07:38 54.09516 -4.45466 32558 ft 436 kts 115°
2026-04-30 07:38 54.08347 -4.40687 33060 ft 434 kts 115°
2026-04-30 07:38 54.07192 -4.35966 33557 ft 432 kts 115°
2026-04-30 07:38 54.06025 -4.31255 34056 ft 430 kts 116°
2026-04-30 07:39 54.04867 -4.26616 34552 ft 427 kts 116°
2026-04-30 07:39 54.03701 -4.21975 35052 ft 424 kts 116°
2026-04-30 07:39 54.02534 -4.17352 35554 ft 421 kts 116°
2026-04-30 07:39 54.01389 -4.12833 36048 ft 418 kts 116°
2026-04-30 07:40 54.00232 -4.08287 36550 ft 414 kts 116°
2026-04-30 07:40 53.99086 -4.03808 36940 ft 413 kts 116°
2026-04-30 07:40 53.97938 -3.99346 37069 ft 418 kts 116°
2026-04-30 07:41 53.95565 -3.90191 37234 ft 428 kts 116°
2026-04-30 07:41 53.93142 -3.80912 37297 ft 433 kts 116°
2026-04-30 07:42 53.90678 -3.71520 37296 ft 433 kts 116°
2026-04-30 07:42 53.88235 -3.62239 37299 ft 430 kts 116°
2026-04-30 07:43 53.85800 -3.53020 37302 ft 428 kts 116°
2026-04-30 07:43 53.83377 -3.43845 37306 ft 427 kts 116°
2026-04-30 07:44 53.81012 -3.34664 37310 ft 426 kts 116°
2026-04-30 07:44 53.78663 -3.25458 37312 ft 426 kts 115°
2026-04-30 07:45 53.76310 -3.16230 37314 ft 426 kts 115°
2026-04-30 07:45 53.73958 -3.07040 37315 ft 426 kts 115°
2026-04-30 07:46 53.71610 -2.97894 37316 ft 426 kts 116°
2026-04-30 07:46 53.69242 -2.88696 37316 ft 425 kts 116°
2026-04-30 07:47 53.66890 -2.79590 37317 ft 425 kts 116°
2026-04-30 07:47 53.64521 -2.70442 37318 ft 425 kts 116°
2026-04-30 07:48 53.62159 -2.61359 37320 ft 425 kts 116°
2026-04-30 07:48 53.59771 -2.52194 37322 ft 425 kts 116°
2026-04-30 07:49 53.57389 -2.43155 37323 ft 424 kts 116°
2026-04-30 07:49 53.54945 -2.34136 37323 ft 424 kts 117°
2026-04-30 07:50 53.52464 -2.25109 37322 ft 424 kts 117°
2026-04-30 07:50 53.49983 -2.16123 37312 ft 424 kts 117°
2026-04-30 07:51 53.47495 -2.07137 37309 ft 424 kts 117°
2026-04-30 07:51 53.45009 -1.98190 37302 ft 424 kts 117°
2026-04-30 07:52 53.42511 -1.89235 37292 ft 424 kts 117°
2026-04-30 07:52 53.39997 -1.80253 37270 ft 424 kts 117°
2026-04-30 07:53 53.37492 -1.71326 37234 ft 424 kts 117°
2026-04-30 07:53 53.34966 -1.62361 37210 ft 424 kts 117°
2026-04-30 07:54 53.32442 -1.53451 37194 ft 424 kts 117°
2026-04-30 07:54 53.29915 -1.44565 37186 ft 425 kts 117°
2026-04-30 07:55 53.27361 -1.35624 37187 ft 425 kts 117°
2026-04-30 07:55 53.24816 -1.26760 37213 ft 425 kts 117°
2026-04-30 07:56 53.22260 -1.17851 37252 ft 425 kts 117°
2026-04-30 07:56 53.19752 -1.08919 37269 ft 426 kts 116°
2026-04-30 07:57 53.17259 -0.99978 37291 ft 426 kts 116°
2026-04-30 07:57 53.14749 -0.90988 37320 ft 426 kts 116°
2026-04-30 07:58 53.12255 -0.82073 37337 ft 426 kts 116°
2026-04-30 07:58 53.09737 -0.73099 37348 ft 426 kts 116°
2026-04-30 07:59 53.07237 -0.64208 37353 ft 426 kts 117°
2026-04-30 07:59 53.04725 -0.55296 37350 ft 426 kts 117°
2026-04-30 08:00 53.00943 -0.41918 37346 ft 426 kts 117°
2026-04-30 08:00 52.98836 -0.34490 37349 ft 426 kts 117°
2026-04-30 08:01 52.95894 -0.24169 37356 ft 426 kts 117°
2026-04-30 08:01 52.93771 -0.16773 37358 ft 426 kts 117°
2026-04-30 08:02 52.89842 -0.03534 37355 ft 426 kts 118°
2026-04-30 08:03 52.84567 0.14111 37346 ft 428 kts 117°
2026-04-30 08:04 52.81905 0.22917 37346 ft 428 kts 117°
2026-04-30 08:04 52.79225 0.31702 37350 ft 429 kts 117°
2026-04-30 08:05 52.76540 0.40463 37357 ft 429 kts 117°
2026-04-30 08:05 52.73837 0.49245 37366 ft 429 kts 117°
2026-04-30 08:06 52.71132 0.57999 37370 ft 429 kts 117°
2026-04-30 08:06 52.68404 0.66791 37362 ft 429 kts 117°
2026-04-30 08:07 52.65683 0.75520 37350 ft 429 kts 117°
2026-04-30 08:07 52.62953 0.84236 37355 ft 429 kts 117°
2026-04-30 08:08 52.60213 0.92995 37362 ft 430 kts 117°
2026-04-30 08:08 52.57528 1.01753 37373 ft 430 kts 116°
2026-04-30 08:09 52.54841 1.10578 37384 ft 430 kts 116°
2026-04-30 08:09 52.52222 1.19381 37388 ft 430 kts 115°
2026-04-30 08:10 52.49620 1.28193 37389 ft 430 kts 115°
2026-04-30 08:10 52.46965 1.37036 37393 ft 430 kts 116°
2026-04-30 08:11 52.44266 1.45799 37390 ft 431 kts 116°
2026-04-30 08:11 52.41549 1.54512 37387 ft 431 kts 116°
2026-04-30 08:12 52.38797 1.63274 37384 ft 432 kts 116°
2026-04-30 08:12 52.36046 1.71983 37382 ft 432 kts 116°
2026-04-30 08:13 52.33278 1.80706 37380 ft 432 kts 116°
2026-04-30 08:13 52.30508 1.89402 37379 ft 432 kts 117°
2026-04-30 08:14 52.27718 1.98130 37381 ft 432 kts 117°
2026-04-30 08:14 52.24927 2.06824 37387 ft 433 kts 117°
2026-04-30 08:15 52.22137 2.15470 37389 ft 433 kts 117°
2026-04-30 08:15 52.19350 2.24151 37392 ft 433 kts 116°
2026-04-30 08:16 52.16544 2.32883 37396 ft 433 kts 116°
2026-04-30 08:16 52.13901 2.41639 37397 ft 432 kts 108°
2026-04-30 08:16 52.13341 2.46458 37404 ft 431 kts 93°
2026-04-30 08:17 52.13412 2.51282 37409 ft 431 kts 85°
2026-04-30 08:17 52.14444 2.60936 37403 ft 432 kts 78°
2026-04-30 08:18 52.15930 2.70381 37413 ft 432 kts 75°
2026-04-30 08:18 52.17589 2.79768 37402 ft 432 kts 74°
2026-04-30 08:19 52.19293 2.89160 37402 ft 431 kts 74°
2026-04-30 08:19 52.20987 2.98488 37403 ft 430 kts 74°
2026-04-30 08:20 52.22675 3.07842 37403 ft 429 kts 74°
2026-04-30 08:20 52.24353 3.17210 37404 ft 428 kts 74°
2026-04-30 08:21 52.26002 3.26508 37404 ft 427 kts 74°
2026-04-30 08:21 52.27672 3.35855 37405 ft 427 kts 73°
2026-04-30 08:22 52.29374 3.45115 37405 ft 426 kts 73°
2026-04-30 08:22 52.31078 3.54344 37405 ft 425 kts 73°
2026-04-30 08:23 52.32774 3.63628 37406 ft 424 kts 74°
2026-04-30 08:23 52.34423 3.72858 37410 ft 424 kts 73°
2026-04-30 08:24 52.35638 3.82268 37419 ft 423 kts 83°
2026-04-30 08:24 52.36005 3.91856 37430 ft 424 kts 87°
2026-04-30 08:25 52.36063 4.01505 37423 ft 423 kts 89°
2026-04-30 08:25 52.36017 4.11159 37424 ft 423 kts 89°
2026-04-30 08:26 52.35930 4.20787 37428 ft 423 kts 89°
2026-04-30 08:26 52.35777 4.30360 37431 ft 423 kts 90°
2026-04-30 08:27 52.35574 4.40012 37440 ft 423 kts 90°
2026-04-30 08:27 52.35351 4.49613 37456 ft 423 kts 90°
2026-04-30 08:28 52.35115 4.59212 37460 ft 424 kts 90°
2026-04-30 08:28 52.34869 4.68831 37462 ft 424 kts 91°
2026-04-30 08:29 52.34609 4.78489 37463 ft 424 kts 91°
2026-04-30 08:29 52.34335 4.88096 37464 ft 424 kts 91°
2026-04-30 08:30 52.33991 4.97713 37466 ft 425 kts 91°
2026-04-30 08:30 52.32991 5.07240 37478 ft 428 kts 101°
2026-04-30 08:31 52.31291 5.16596 37490 ft 429 kts 105°
2026-04-30 08:31 52.29334 5.25807 37478 ft 430 kts 106°
2026-04-30 08:32 52.27291 5.34965 37477 ft 430 kts 107°
2026-04-30 08:32 52.25175 5.44089 37479 ft 430 kts 108°
2026-04-30 08:33 52.22981 5.53214 37479 ft 430 kts 108°
2026-04-30 08:33 52.20779 5.62236 37477 ft 430 kts 108°
2026-04-30 08:34 52.18550 5.71291 37472 ft 430 kts 108°
2026-04-30 08:34 52.16322 5.80332 37467 ft 430 kts 108°
2026-04-30 08:35 52.14123 5.89399 37465 ft 429 kts 108°
2026-04-30 08:35 52.11919 5.98383 37465 ft 428 kts 106°
2026-04-30 08:36 52.10281 6.07683 37470 ft 425 kts 99°
2026-04-30 08:36 52.09045 6.17086 37468 ft 424 kts 98°
2026-04-30 08:37 52.07919 6.26483 37468 ft 424 kts 97°
2026-04-30 08:37 52.06831 6.35907 37468 ft 424 kts 97°
2026-04-30 08:38 52.05809 6.45302 37465 ft 424 kts 96°
2026-04-30 08:38 52.04772 6.54792 37469 ft 424 kts 97°
2026-04-30 08:39 52.03711 6.64218 37475 ft 425 kts 97°
2026-04-30 08:39 52.02542 6.73621 37477 ft 426 kts 98°
2026-04-30 08:40 52.01224 6.82987 37485 ft 427 kts 99°
2026-04-30 08:40 51.99854 6.92345 37491 ft 427 kts 99°
2026-04-30 08:41 51.98479 7.01764 37495 ft 426 kts 96°
2026-04-30 08:41 51.98308 7.06517 37509 ft 420 kts 84°
2026-04-30 08:41 51.98632 7.11174 37515 ft 417 kts 78°
2026-04-30 08:42 51.99930 7.20288 37517 ft 416 kts 72°
2026-04-30 08:42 52.01590 7.29301 37514 ft 415 kts 70°
2026-04-30 08:43 52.03327 7.38223 37517 ft 414 kts 70°
2026-04-30 08:43 52.05070 7.47105 37519 ft 414 kts 70°
2026-04-30 08:44 52.06813 7.56008 37521 ft 413 kts 69°
2026-04-30 08:44 52.08548 7.64940 37522 ft 413 kts 70°
2026-04-30 08:45 52.10263 7.73815 37523 ft 413 kts 70°
2026-04-30 08:45 52.11979 7.82762 37523 ft 413 kts 70°
2026-04-30 08:46 52.13617 7.91676 37524 ft 412 kts 70°
2026-04-30 08:46 52.15220 8.00614 37527 ft 412 kts 71°
2026-04-30 08:47 52.16824 8.09628 37530 ft 412 kts 71°
2026-04-30 08:47 52.18398 8.18575 37533 ft 413 kts 72°
2026-04-30 08:48 52.19564 8.27740 37541 ft 415 kts 77°
2026-04-30 08:48 52.20333 8.37107 37544 ft 417 kts 80°
2026-04-30 08:49 52.20841 8.46524 37543 ft 418 kts 81°
2026-04-30 08:49 52.21256 8.55949 37543 ft 419 kts 82°
2026-04-30 08:50 52.21563 8.63866 37545 ft 419 kts 82°
2026-04-30 08:50 52.21857 8.73371 37548 ft 420 kts 83°
2026-04-30 08:51 52.22113 8.82892 37548 ft 420 kts 83°
2026-04-30 08:51 52.22350 8.92385 37550 ft 421 kts 83°
2026-04-30 08:52 52.22627 9.01953 37551 ft 420 kts 82°
2026-04-30 08:52 52.22922 9.11484 37552 ft 421 kts 82°
2026-04-30 08:53 52.23210 9.21004 37553 ft 421 kts 82°
2026-04-30 08:53 52.23485 9.30523 37551 ft 421 kts 82°
2026-04-30 08:54 52.23746 9.40075 37551 ft 421 kts 82°
2026-04-30 08:54 52.24000 9.49547 37560 ft 421 kts 82°
2026-04-30 08:55 52.24293 9.59147 37564 ft 420 kts 82°
2026-04-30 08:55 52.24566 9.68685 37567 ft 420 kts 82°
2026-04-30 08:56 52.24810 9.78209 37579 ft 422 kts 84°
2026-04-30 08:56 52.24339 9.87800 37667 ft 427 kts 91°
2026-04-30 08:57 52.23398 9.97413 37611 ft 431 kts 93°
2026-04-30 08:57 52.22374 10.07054 37581 ft 430 kts 93°
2026-04-30 08:58 52.21291 10.16603 37580 ft 430 kts 94°
2026-04-30 08:58 52.20160 10.26153 37581 ft 430 kts 94°
2026-04-30 08:59 52.19009 10.35711 37580 ft 430 kts 94°
2026-04-30 08:59 52.17843 10.45327 37580 ft 431 kts 95°
2026-04-30 09:00 52.16669 10.54887 37581 ft 431 kts 95°
2026-04-30 09:00 52.15431 10.64423 37581 ft 432 kts 95°
2026-04-30 09:01 52.14161 10.73963 37581 ft 432 kts 96°
2026-04-30 09:01 52.12871 10.83544 37568 ft 433 kts 96°
2026-04-30 09:02 52.10918 10.97899 37551 ft 433 kts 96°
2026-04-30 09:02 52.09613 11.07430 37553 ft 433 kts 96°
2026-04-30 09:03 52.08296 11.16971 37552 ft 433 kts 96°
2026-04-30 09:03 52.06970 11.26516 37553 ft 432 kts 96°
2026-04-30 09:04 52.05639 11.36027 37551 ft 433 kts 96°
2026-04-30 09:04 52.04291 11.45594 37552 ft 432 kts 96°
2026-04-30 09:05 52.02966 11.55078 37554 ft 432 kts 96°
2026-04-30 09:05 52.01621 11.64609 37553 ft 432 kts 96°
2026-04-30 09:06 52.00284 11.74079 37557 ft 432 kts 95°
2026-04-30 09:06 51.98979 11.83618 37557 ft 431 kts 95°
2026-04-30 09:07 51.97638 11.93094 37554 ft 432 kts 96°
2026-04-30 09:07 51.96256 12.02561 37560 ft 432 kts 96°
2026-04-30 09:08 51.94851 12.12072 37560 ft 432 kts 96°
2026-04-30 09:08 51.93447 12.21533 37559 ft 432 kts 96°
2026-04-30 09:09 51.92039 12.31003 37568 ft 432 kts 96°
2026-04-30 09:09 51.90643 12.40430 37565 ft 433 kts 96°
2026-04-30 09:10 51.89247 12.49893 37564 ft 433 kts 96°
2026-04-30 09:10 51.87849 12.59383 37560 ft 434 kts 96°
2026-04-30 09:11 51.86448 12.68924 37558 ft 434 kts 96°
2026-04-30 09:11 51.85052 12.78393 37557 ft 435 kts 97°
2026-04-30 09:12 51.83596 12.87879 37556 ft 436 kts 97°
2026-04-30 09:12 51.82106 12.97440 37554 ft 437 kts 97°
2026-04-30 09:13 51.80620 13.06924 37581 ft 439 kts 99°
2026-04-30 09:13 51.78659 13.16358 37640 ft 444 kts 103°
2026-04-30 09:14 51.76424 13.25678 37573 ft 447 kts 105°
2026-04-30 09:14 51.74126 13.34940 37554 ft 446 kts 104°
2026-04-30 09:15 51.71837 13.44263 37549 ft 445 kts 104°
2026-04-30 09:15 51.69573 13.53502 37551 ft 445 kts 104°
2026-04-30 09:16 51.67295 13.62787 37548 ft 445 kts 104°
2026-04-30 09:16 51.65016 13.72060 37553 ft 445 kts 104°
2026-04-30 09:17 51.62720 13.81312 37552 ft 445 kts 104°
2026-04-30 09:17 51.60410 13.90521 37551 ft 444 kts 104°
2026-04-30 09:18 51.58082 13.99758 37552 ft 444 kts 104°
2026-04-30 09:18 51.55715 14.08938 37552 ft 444 kts 105°
2026-04-30 09:19 51.53368 14.18092 37553 ft 441 kts 102°
2026-04-30 09:19 51.51562 14.27408 37557 ft 437 kts 98°
2026-04-30 09:20 51.50036 14.36841 37553 ft 436 kts 97°
2026-04-30 09:20 51.48559 14.46257 37552 ft 436 kts 97°
2026-04-30 09:21 51.47077 14.55735 37552 ft 436 kts 97°
2026-04-30 09:21 51.45600 14.65145 37552 ft 436 kts 97°
2026-04-30 09:22 51.44129 14.74535 37552 ft 436 kts 97°
2026-04-30 09:22 51.42655 14.83947 37552 ft 436 kts 97°
2026-04-30 09:23 51.40907 14.93259 37638 ft 440 kts 102°
2026-04-30 09:23 51.38780 15.02514 37604 ft 444 kts 103°
2026-04-30 09:24 51.36495 15.11676 37559 ft 444 kts 104°
2026-04-30 09:24 51.34138 15.20849 37550 ft 444 kts 104°
2026-04-30 09:25 51.31766 15.29966 37551 ft 444 kts 105°
2026-04-30 09:25 51.29388 15.39068 37551 ft 444 kts 105°
2026-04-30 09:26 51.27007 15.48163 37551 ft 445 kts 105°
2026-04-30 09:26 51.24622 15.57259 37552 ft 445 kts 105°
2026-04-30 09:27 51.22233 15.66348 37552 ft 445 kts 105°
2026-04-30 09:27 51.19848 15.75433 37551 ft 445 kts 105°
2026-04-30 09:28 51.17488 15.84592 37552 ft 445 kts 104°
2026-04-30 09:28 51.15121 15.93675 37548 ft 445 kts 105°
2026-04-30 09:29 51.12728 16.02761 37548 ft 445 kts 105°
2026-04-30 09:29 51.10343 16.11815 37552 ft 446 kts 105°
2026-04-30 09:30 51.07934 16.20953 37548 ft 446 kts 105°
2026-04-30 09:30 51.05570 16.30030 37547 ft 446 kts 105°
2026-04-30 09:31 51.03213 16.39194 37550 ft 446 kts 104°
2026-04-30 09:31 51.00873 16.48300 37552 ft 446 kts 105°
2026-04-30 09:32 50.98504 16.57382 37552 ft 447 kts 105°
2026-04-30 09:32 50.96095 16.66503 37552 ft 448 kts 105°
2026-04-30 09:33 50.93632 16.75579 37552 ft 449 kts 106°
2026-04-30 09:33 50.91142 16.84684 37556 ft 449 kts 106°
2026-04-30 09:34 50.88691 16.93764 37547 ft 449 kts 106°
2026-04-30 09:34 50.86289 17.02857 37549 ft 449 kts 105°
2026-04-30 09:35 50.83850 17.11947 37549 ft 450 kts 106°
2026-04-30 09:35 50.81387 17.21078 37549 ft 450 kts 106°
2026-04-30 09:36 50.78911 17.30189 37547 ft 451 kts 106°
2026-04-30 09:36 50.76434 17.39261 37521 ft 451 kts 107°
2026-04-30 09:37 50.73951 17.48355 37518 ft 451 kts 107°
2026-04-30 09:37 50.71484 17.57419 37519 ft 451 kts 107°
2026-04-30 09:38 50.69419 17.65022 37515 ft 451 kts 107°
2026-04-30 09:38 50.66944 17.74103 37517 ft 453 kts 107°
2026-04-30 09:39 50.64410 17.83168 37515 ft 453 kts 107°
2026-04-30 09:39 50.61777 17.92237 37522 ft 454 kts 109°
2026-04-30 09:40 50.59926 18.01523 37604 ft 443 kts 96°
2026-04-30 09:40 50.59040 18.11055 37659 ft 438 kts 91°
2026-04-30 09:41 50.58731 18.15851 37284 ft 439 kts 89°
2026-04-30 09:41 50.58478 18.20606 36832 ft 435 kts 88°
2026-04-30 09:41 50.58253 18.25363 36339 ft 429 kts 88°
2026-04-30 09:41 50.58042 18.29964 35845 ft 422 kts 88°
2026-04-30 09:42 50.57848 18.34539 35342 ft 413 kts 86°
2026-04-30 09:42 50.57681 18.39024 34838 ft 404 kts 86°
2026-04-30 09:42 50.57526 18.43343 34343 ft 396 kts 86°
2026-04-30 09:42 50.57375 18.47661 33839 ft 388 kts 85°
2026-04-30 09:43 50.57238 18.51833 33341 ft 381 kts 85°
2026-04-30 09:43 50.57103 18.55983 32837 ft 375 kts 85°
2026-04-30 09:43 50.56967 18.60014 32339 ft 369 kts 85°
2026-04-30 09:43 50.56829 18.64026 31798 ft 364 kts 84°
2026-04-30 09:44 50.56760 18.67962 31219 ft 358 kts 83°
2026-04-30 09:44 50.56733 18.71870 30618 ft 353 kts 82°
2026-04-30 09:44 50.56730 18.75708 30016 ft 347 kts 82°
2026-04-30 09:44 50.56745 18.79457 29418 ft 342 kts 82°
2026-04-30 09:45 50.56755 18.83182 28815 ft 338 kts 82°
2026-04-30 09:45 50.56762 18.86847 28216 ft 335 kts 82°
2026-04-30 09:45 50.56770 18.90514 27612 ft 332 kts 82°
2026-04-30 09:45 50.56764 18.94101 27017 ft 330 kts 83°
2026-04-30 09:46 50.56752 18.97717 26413 ft 328 kts 83°
2026-04-30 09:46 50.56734 19.01315 25810 ft 327 kts 83°
2026-04-30 09:46 50.56703 19.04866 25211 ft 325 kts 83°
2026-04-30 09:46 50.56687 19.08387 24615 ft 323 kts 83°
2026-04-30 09:47 50.56681 19.11924 24011 ft 321 kts 83°
2026-04-30 09:47 50.56682 19.15439 23408 ft 319 kts 83°
2026-04-30 09:47 50.56675 19.18880 22814 ft 317 kts 84°
2026-04-30 09:47 50.56657 19.22360 22211 ft 315 kts 84°
2026-04-30 09:48 50.56634 19.25808 21607 ft 313 kts 84°
2026-04-30 09:48 50.56611 19.29190 21011 ft 310 kts 84°
2026-04-30 09:48 50.56588 19.32591 20407 ft 308 kts 84°
2026-04-30 09:48 50.56566 19.35912 19811 ft 305 kts 84°
2026-04-30 09:49 50.56544 19.39242 19210 ft 302 kts 84°
2026-04-30 09:49 50.56524 19.42540 18607 ft 299 kts 84°
2026-04-30 09:49 50.56500 19.45805 18005 ft 297 kts 84°
2026-04-30 09:49 50.56460 19.49017 17408 ft 294 kts 85°
2026-04-30 09:50 50.56417 19.52239 16805 ft 292 kts 85°
2026-04-30 09:50 50.56374 19.55391 16210 ft 290 kts 85°
2026-04-30 09:50 50.56247 19.58571 15604 ft 293 kts 94°
2026-04-30 09:50 50.55459 19.61581 15001 ft 305 kts 117°
2026-04-30 09:51 50.53998 19.64017 14436 ft 313 kts 134°
2026-04-30 09:51 50.52214 19.66030 13866 ft 315 kts 141°
2026-04-30 09:51 50.50357 19.67793 13291 ft 314 kts 145°
2026-04-30 09:51 50.48455 19.69457 12701 ft 312 kts 146°
2026-04-30 09:52 50.46559 19.71067 12202 ft 302 kts 147°
2026-04-30 09:52 50.44756 19.72587 11777 ft 292 kts 147°
2026-04-30 09:52 50.43029 19.74023 11359 ft 284 kts 148°
2026-04-30 09:52 50.41303 19.75447 10929 ft 276 kts 148°
2026-04-30 09:53 50.39613 19.76850 10499 ft 271 kts 148°
2026-04-30 09:53 50.37980 19.78222 10075 ft 266 kts 149°
2026-04-30 09:53 50.36351 19.79588 9645 ft 262 kts 149°
2026-04-30 09:53 50.34769 19.80918 9224 ft 258 kts 149°
2026-04-30 09:54 50.33341 19.82493 8871 ft 248 kts 131°
2026-04-30 09:54 50.32464 19.84730 8643 ft 238 kts 111°
2026-04-30 09:54 50.31888 19.87175 8401 ft 239 kts 105°
2026-04-30 09:54 50.31407 19.89645 8156 ft 240 kts 104°
2026-04-30 09:55 50.30940 19.92177 7906 ft 241 kts 103°
2026-04-30 09:55 50.30491 19.94672 7659 ft 241 kts 103°
2026-04-30 09:55 50.30042 19.97207 7408 ft 241 kts 103°
2026-04-30 09:55 50.29594 19.99736 7156 ft 240 kts 103°
2026-04-30 09:56 50.29154 20.02227 6908 ft 239 kts 103°
2026-04-30 09:56 50.28713 20.04745 6658 ft 239 kts 103°
2026-04-30 09:56 50.28275 20.07255 6407 ft 238 kts 103°
2026-04-30 09:56 50.27847 20.09731 6159 ft 237 kts 103°
2026-04-30 09:57 50.27417 20.12227 5907 ft 237 kts 103°
2026-04-30 09:57 50.26881 20.14660 5636 ft 238 kts 117°
2026-04-30 09:57 50.25762 20.16507 5390 ft 239 kts 146°
2026-04-30 09:57 50.24227 20.17518 5227 ft 239 kts 162°
2026-04-30 09:58 50.22624 20.18146 5059 ft 239 kts 167°
2026-04-30 09:58 50.21006 20.18668 4884 ft 238 kts 168°
2026-04-30 09:58 50.19372 20.19132 4703 ft 237 kts 173°
2026-04-30 09:58 50.17749 20.18801 4511 ft 235 kts 201°
2026-04-30 09:59 50.15107 20.15886 4202 ft 234 kts 222°
2026-04-30 09:59 50.12887 20.12540 3865 ft 207 kts 236°
2026-04-30 10:00 50.11911 20.08661 3488 ft 184 kts 257°
2026-04-30 10:00 50.11633 20.06740 3229 ft 178 kts 260°
2026-04-30 10:01 50.11150 20.03057 2728 ft 168 kts 260°
2026-04-30 10:01 50.10919 20.01322 2524 ft 162 kts 260°
2026-04-30 10:01 50.10692 19.99653 2405 ft 154 kts 260°
2026-04-30 10:02 50.10249 19.96427 2234 ft 156 kts 259°
2026-04-30 10:02 50.10019 19.94761 2164 ft 155 kts 259°
2026-04-30 10:02 50.09792 19.93115 2081 ft 155 kts 259°
2026-04-30 10:02 50.09566 19.91478 1967 ft 152 kts 259°
2026-04-30 10:03 50.09350 19.89909 1841 ft 149 kts 259°
2026-04-30 10:03 50.09133 19.88335 1700 ft 148 kts 259°
2026-04-30 10:03 50.08918 19.86769 1546 ft 147 kts 259°
2026-04-30 10:03 50.08705 19.85227 1397 ft 146 kts 258°
2026-04-30 10:04 50.08491 19.83681 1251 ft 145 kts 258°
2026-04-30 10:04 50.08280 19.82161 1094 ft 145 kts 258°
2026-04-30 10:04 50.08068 19.80628 916 ft 143 kts 258°
2026-04-30 10:04 50.07864 19.79161 800 ft 130 kts 258°
2026-04-30 10:05 50.07721 19.78130 800 ft 66 kts 258°
2026-04-30 10:05 50.07644 19.77572 800 ft 45 kts 258°
2026-04-30 10:05 50.07588 19.77172 800 ft 32 kts 257°
2026-04-30 10:05 50.07545 19.76885 800 ft 21 kts 244°
2026-04-30 10:06 50.07464 19.76847 800 ft 9 kts 167°
2026-04-30 10:06 50.07409 19.76865 800 ft 9 kts 168°
2026-04-30 10:06 50.07337 19.76890 800 ft 12 kts 164°
2026-04-30 10:06 50.07309 19.76995 800 ft 13 kts 76°
2026-04-30 10:07 50.07330 19.77142 800 ft 15 kts 78°
2026-04-30 10:07 50.07354 19.77317 800 ft 18 kts 78°
2026-04-30 10:07 50.07383 19.77522 800 ft 20 kts 78°
2026-04-30 10:07 50.07415 19.77752 800 ft 23 kts 78°
2026-04-30 10:08 50.07450 19.78003 800 ft 25 kts 78°
2026-04-30 10:08 50.07489 19.78283 800 ft 27 kts 78°
2026-04-30 10:08 50.07530 19.78583 800 ft 29 kts 78°
2026-04-30 10:08 50.07575 19.78904 800 ft 31 kts 78°
2026-04-30 10:09 50.07622 19.79241 800 ft 33 kts 78°
2026-04-30 10:09 50.07665 19.79549 800 ft 27 kts 78°
2026-04-30 10:09 50.07706 19.79845 800 ft 29 kts 77°
2026-04-30 10:09 50.07751 19.80165 800 ft 31 kts 77°
2026-04-30 10:10 50.07759 19.80360 800 ft 4 kts 152°
2026-04-30 10:10 50.07720 19.80375 800 ft 7 kts 167°
2026-04-30 10:10 50.07660 19.80396 800 ft 11 kts 168°
2026-04-30 10:10 50.07578 19.80410 800 ft 12 kts 205°
2026-04-30 10:11 50.07551 19.80292 800 ft 10 kts 257°
2026-04-30 10:11 50.07532 19.80200 800 ft 4 kts 201°
2026-04-30 10:11 50.07499 19.80207 800 ft 3 kts 168°
2026-04-30 10:11 50.07491 19.80210 800 ft 0 kts 168°
2026-04-30 10:12 50.07490 19.80210 800 ft 0 kts 168°